Time,TemperatureF,DewpointF,PressureIn,WindDirection,WindDirectionDegrees,WindSpeedMPH,WindSpeedGustMPH,Humidity,HourlyPrecipIn,Conditions,Clouds,dailyrainin,SoftwareType,DateUTC
2013-04-04 00:00:00,37.0,26.0,30.07,WSW,248,1.6,3.8,64,0.00,,,0.00,pywws,2013-04-03 23:00:00,
2013-04-04 00:06:00,37.0,26.0,30.07,WSW,248,1.6,3.8,64,0.00,,,0.00,pywws,2013-04-03 23:06:00,
2013-04-04 00:11:00,37.0,26.4,30.07,NE,45,3.1,6.0,65,0.00,,,0.00,pywws,2013-04-03 23:11:00,
2013-04-04 00:16:00,37.0,26.8,30.07,North,0,5.4,11.4,66,0.00,,,0.00,pywws,2013-04-03 23:16:00,
2013-04-04 00:21:00,36.9,26.6,30.07,NE,45,0.7,3.8,66,0.00,,,0.00,pywws,2013-04-03 23:21:00,
2013-04-04 00:27:00,36.9,26.9,30.07,North,0,1.6,3.8,67,0.00,,,0.00,pywws,2013-04-03 23:27:00,
2013-04-04 00:32:00,36.9,27.3,30.07,NE,45,3.8,6.9,68,0.00,,,0.00,pywws,2013-04-03 23:32:00,
2013-04-04 00:37:00,36.9,27.3,30.06,ENE,68,2.2,6.0,68,0.00,,,0.00,pywws,2013-04-03 23:37:00,
2013-04-04 00:42:00,36.7,27.5,30.07,SE,135,1.6,3.8,69,0.00,,,0.00,pywws,2013-04-03 23:42:00,
2013-04-04 00:47:00,36.7,27.8,30.07,NE,45,5.4,9.8,70,0.00,,,0.00,pywws,2013-04-03 23:47:00,
2013-04-04 00:52:00,36.7,27.8,30.07,NE,45,6.9,11.4,70,0.00,,,0.00,pywws,2013-04-03 23:52:00,
2013-04-04 00:57:00,36.7,28.2,30.07,NNE,22,6.0,11.4,71,0.00,,,0.00,pywws,2013-04-03 23:57:00,
2013-04-04 01:02:00,36.7,28.2,30.07,North,0,1.6,3.8,71,0.00,,,0.00,pywws,2013-04-04 00:02:00,
2013-04-04 01:07:00,36.7,28.2,30.06,North,0,1.6,3.8,71,0.00,,,0.00,pywws,2013-04-04 00:07:00,
2013-04-04 01:13:00,36.7,28.5,30.06,North,0,3.8,6.0,72,0.00,,,0.00,pywws,2013-04-04 00:13:00,
2013-04-04 01:18:00,36.7,28.5,30.06,NE,45,2.2,4.5,72,0.00,,,0.00,pywws,2013-04-04 00:18:00,
2013-04-04 01:23:00,36.5,28.3,30.06,North,0,3.1,6.0,72,0.00,,,0.00,pywws,2013-04-04 00:23:00,
2013-04-04 01:28:00,36.3,28.5,30.06,NE,45,3.1,6.0,73,0.00,,,0.00,pywws,2013-04-04 00:28:00,
2013-04-04 01:33:00,36.1,28.3,30.06,NE,45,2.2,4.5,73,0.00,,,0.00,pywws,2013-04-04 00:33:00,
2013-04-04 01:39:00,36.0,28.5,30.06,North,0,4.5,9.8,74,0.00,,,0.00,pywws,2013-04-04 00:39:00,
2013-04-04 01:44:00,35.8,28.6,30.05,NE,45,0.7,2.2,75,0.00,,,0.00,pywws,2013-04-04 00:44:00,
2013-04-04 01:49:00,35.6,28.5,30.06,NE,45,3.1,6.0,75,0.00,,,0.00,pywws,2013-04-04 00:49:00,
2013-04-04 01:54:00,35.6,28.5,30.05,North,0,1.6,4.5,75,0.00,,,0.00,pywws,2013-04-04 00:54:00,
2013-04-04 01:59:00,35.4,28.6,30.05,North,0,0.7,2.2,76,0.00,,,0.00,pywws,2013-04-04 00:59:00,
2013-04-04 02:04:00,35.4,28.6,30.05,NE,45,2.2,4.5,76,0.00,,,0.00,pywws,2013-04-04 01:04:00,
2013-04-04 02:10:00,35.2,28.8,30.04,NE,45,3.1,6.0,77,0.00,,,0.00,pywws,2013-04-04 01:10:00,
2013-04-04 02:15:00,35.2,28.8,30.05,ENE,68,1.6,3.8,77,0.00,,,0.00,pywws,2013-04-04 01:15:00,
2013-04-04 02:20:00,35.1,28.6,30.04,SE,135,2.2,5.4,77,0.00,,,0.00,pywws,2013-04-04 01:20:00,
2013-04-04 02:25:00,34.9,28.4,30.04,NE,45,0.0,1.6,77,0.00,,,0.00,pywws,2013-04-04 01:25:00,
2013-04-04 02:30:00,34.9,28.7,30.04,NW,315,1.6,3.1,78,0.00,,,0.00,pywws,2013-04-04 01:30:00,
2013-04-04 02:35:00,34.7,28.6,30.04,North,0,1.6,3.1,78,0.00,,,0.00,pywws,2013-04-04 01:35:00,
2013-04-04 02:40:00,34.5,28.7,30.04,North,0,0.0,2.2,79,0.00,,,0.00,pywws,2013-04-04 01:40:00,
2013-04-04 02:46:00,34.5,28.7,30.03,NNE,22,2.2,5.4,79,0.00,,,0.00,pywws,2013-04-04 01:46:00,
2013-04-04 02:51:00,34.5,28.7,30.03,North,0,1.6,4.5,79,0.00,,,0.00,pywws,2013-04-04 01:51:00,
2013-04-04 02:56:00,34.7,28.9,30.03,NE,45,6.0,12.1,79,0.00,,,0.00,pywws,2013-04-04 01:56:00,
2013-04-04 03:02:00,34.9,29.0,30.03,North,0,1.6,5.4,79,0.00,,,0.00,pywws,2013-04-04 02:02:00,
2013-04-04 03:07:00,34.9,29.0,30.03,NE,45,0.7,6.0,79,0.00,,,0.00,pywws,2013-04-04 02:07:00,
2013-04-04 03:12:00,35.1,29.2,30.03,North,0,3.1,7.6,79,0.00,,,0.00,pywws,2013-04-04 02:12:00,
2013-04-04 03:17:00,34.9,29.0,30.03,NE,45,0.7,3.8,79,0.00,,,0.00,pywws,2013-04-04 02:17:00,
2013-04-04 03:22:00,34.9,29.3,30.03,North,0,1.6,6.0,80,0.00,,,0.00,pywws,2013-04-04 02:22:00,
2013-04-04 03:27:00,35.1,29.2,30.02,North,0,3.1,7.6,79,0.00,,,0.00,pywws,2013-04-04 02:27:00,
2013-04-04 03:32:00,35.1,29.2,30.02,NE,45,3.8,7.6,79,0.00,,,0.00,pywws,2013-04-04 02:32:00,
2013-04-04 03:38:00,35.2,29.4,30.02,NE,45,1.6,3.1,79,0.00,,,0.00,pywws,2013-04-04 02:38:00,
2013-04-04 03:43:00,35.2,29.4,30.02,NE,45,3.1,6.9,79,0.00,,,0.00,pywws,2013-04-04 02:43:00,
2013-04-04 03:49:00,35.4,29.6,30.01,NE,45,1.6,5.4,79,0.00,,,0.00,pywws,2013-04-04 02:49:00,
2013-04-04 03:54:00,35.4,29.6,30.02,NW,315,3.1,6.9,79,0.00,,,0.00,pywws,2013-04-04 02:54:00,
2013-04-04 03:59:00,35.4,29.6,30.02,NE,45,4.5,8.3,79,0.00,,,0.00,pywws,2013-04-04 02:59:00,
2013-04-04 04:04:00,35.4,29.6,30.01,NW,315,2.2,4.5,79,0.00,,,0.00,pywws,2013-04-04 03:04:00,
2013-04-04 04:09:00,35.6,29.7,30.01,NE,45,3.8,9.2,79,0.00,,,0.00,pywws,2013-04-04 03:09:00,
2013-04-04 04:14:00,35.6,29.7,30.01,NNE,22,2.2,5.4,79,0.00,,,0.00,pywws,2013-04-04 03:14:00,
2013-04-04 04:19:00,35.6,29.7,30.01,SW,225,3.1,6.9,79,0.00,,,0.00,pywws,2013-04-04 03:19:00,
2013-04-04 04:25:00,35.4,29.6,30.01,NE,45,1.6,7.6,79,0.00,,,0.00,pywws,2013-04-04 03:25:00,
2013-04-04 04:30:00,35.2,29.7,30.01,NE,45,1.6,5.4,80,0.00,,,0.00,pywws,2013-04-04 03:30:00,
2013-04-04 04:35:00,35.2,29.7,30.01,NW,315,0.7,3.1,80,0.00,,,0.00,pywws,2013-04-04 03:35:00,
2013-04-04 04:40:00,35.1,29.5,30.01,North,0,3.8,9.8,80,0.00,,,0.00,pywws,2013-04-04 03:40:00,
2013-04-04 04:45:00,34.7,29.5,30.01,NNE,22,3.1,5.4,81,0.00,,,0.00,pywws,2013-04-04 03:45:00,
2013-04-04 04:50:00,34.7,29.5,30.01,NE,45,2.2,5.4,81,0.00,,,0.00,pywws,2013-04-04 03:50:00,
2013-04-04 04:55:00,34.5,29.3,30.01,NE,45,3.1,6.9,81,0.00,,,0.00,pywws,2013-04-04 03:55:00,
2013-04-04 05:00:00,34.3,29.1,30.02,NE,45,1.6,5.4,81,0.00,,,0.00,pywws,2013-04-04 04:00:00,
2013-04-04 05:01:00,34.3,29.1,30.01,NE,45,1.6,5.4,81,0.00,,,0.00,pywws,2013-04-04 04:01:00,
2013-04-04 05:02:00,34.3,29.1,30.02,NE,45,1.6,5.4,81,0.00,,,0.00,pywws,2013-04-04 04:02:00,
2013-04-04 05:04:00,34.3,29.1,30.01,NE,45,1.6,5.4,81,0.00,,,0.00,pywws,2013-04-04 04:04:00,
2013-04-04 05:09:00,34.0,29.1,30.02,NE,45,2.2,4.5,82,0.00,,,0.00,pywws,2013-04-04 04:09:00,
2013-04-04 05:14:00,33.8,29.2,30.01,North,0,1.6,6.0,83,0.00,,,0.00,pywws,2013-04-04 04:14:00,
2013-04-04 05:19:00,33.8,29.5,30.02,NE,45,1.6,4.5,84,0.00,,,0.00,pywws,2013-04-04 04:19:00,
2013-04-04 05:24:00,33.8,29.2,30.01,SW,225,0.7,2.2,83,0.00,,,0.00,pywws,2013-04-04 04:24:00,
2013-04-04 05:30:00,33.8,29.5,30.01,East,90,0.7,3.1,84,0.00,,,0.00,pywws,2013-04-04 04:30:00,
2013-04-04 05:35:00,33.6,29.3,30.01,NNE,22,1.6,7.6,84,0.00,,,0.00,pywws,2013-04-04 04:35:00,
2013-04-04 05:40:00,33.6,29.3,30.01,East,90,1.6,3.1,84,0.00,,,0.00,pywws,2013-04-04 04:40:00,
2013-04-04 05:45:00,33.4,29.1,30.01,North,0,2.2,6.0,84,0.00,,,0.00,pywws,2013-04-04 04:45:00,
2013-04-04 05:50:00,33.4,29.4,30.01,East,90,4.5,8.3,85,0.00,,,0.00,pywws,2013-04-04 04:50:00,
2013-04-04 05:55:00,33.6,29.6,30.01,NW,315,1.6,4.5,85,0.00,,,0.00,pywws,2013-04-04 04:55:00,
2013-04-04 06:01:00,33.6,29.6,30.01,NE,45,2.2,6.9,85,0.00,,,0.00,pywws,2013-04-04 05:01:00,
2013-04-04 06:06:00,33.6,29.6,30.01,NE,45,2.2,6.9,85,0.00,,,0.00,pywws,2013-04-04 05:06:00,
2013-04-04 06:11:00,34.0,29.7,30.01,NE,45,1.6,5.4,84,0.00,,,0.00,pywws,2013-04-04 05:11:00,
2013-04-04 06:16:00,34.2,29.8,30.01,North,0,4.5,7.6,84,0.00,,,0.00,pywws,2013-04-04 05:16:00,
2013-04-04 06:22:00,34.2,29.8,30.01,North,0,3.1,7.6,84,0.00,,,0.00,pywws,2013-04-04 05:22:00,
2013-04-04 06:27:00,34.3,30.0,30.01,SE,135,3.8,7.6,84,0.00,,,0.00,pywws,2013-04-04 05:27:00,
2013-04-04 06:32:00,34.5,30.2,30.01,NE,45,3.1,4.5,84,0.00,,,0.00,pywws,2013-04-04 05:32:00,
2013-04-04 06:37:00,34.7,30.1,30.01,NE,45,3.1,6.9,83,0.00,,,0.00,pywws,2013-04-04 05:37:00,
2013-04-04 06:42:00,34.9,30.3,30.01,NE,45,2.2,6.9,83,0.00,,,0.00,pywws,2013-04-04 05:42:00,
2013-04-04 06:47:00,35.1,30.4,30.01,NE,45,0.7,2.2,83,0.00,,,0.00,pywws,2013-04-04 05:47:00,
2013-04-04 06:52:00,35.1,30.4,30.01,North,0,0.7,1.6,83,0.00,,,0.00,pywws,2013-04-04 05:52:00,
2013-04-04 06:58:00,35.2,30.6,30.01,North,0,6.9,9.8,83,0.00,,,0.00,pywws,2013-04-04 05:58:00,
2013-04-04 07:03:00,35.2,30.6,30.01,North,0,3.1,6.9,83,0.00,,,0.00,pywws,2013-04-04 06:03:00,
2013-04-04 07:08:00,35.4,30.8,30.01,NE,45,6.0,10.7,83,0.00,,,0.00,pywws,2013-04-04 06:08:00,
2013-04-04 07:14:00,35.4,30.5,30.01,East,90,3.8,7.6,82,0.00,,,0.00,pywws,2013-04-04 06:14:00,
2013-04-04 07:19:00,35.6,30.7,30.01,South,180,5.4,9.2,82,0.00,,,0.00,pywws,2013-04-04 06:19:00,
2013-04-04 07:24:00,35.8,30.8,30.01,NE,45,3.8,8.3,82,0.00,,,0.00,pywws,2013-04-04 06:24:00,
2013-04-04 07:29:00,35.8,30.8,30.01,North,0,3.8,7.6,82,0.00,,,0.00,pywws,2013-04-04 06:29:00,
2013-04-04 07:34:00,36.0,31.0,30.01,NE,45,1.6,3.8,82,0.00,,,0.00,pywws,2013-04-04 06:34:00,
2013-04-04 07:39:00,36.1,30.9,30.01,North,0,3.1,6.0,81,0.00,,,0.00,pywws,2013-04-04 06:39:00,
2013-04-04 07:45:00,36.1,30.9,30.01,ENE,68,6.9,13.0,81,0.00,,,0.00,pywws,2013-04-04 06:45:00,
2013-04-04 07:50:00,36.3,31.1,30.01,NNE,22,2.2,6.0,81,0.00,,,0.00,pywws,2013-04-04 06:50:00,
2013-04-04 07:55:00,36.5,31.2,30.01,NE,45,1.6,3.8,81,0.00,,,0.00,pywws,2013-04-04 06:55:00,
2013-04-04 08:00:00,36.5,30.9,30.01,NW,315,4.5,9.8,80,0.00,,,0.00,pywws,2013-04-04 07:00:00,
2013-04-04 08:05:00,36.5,30.9,30.01,NW,315,4.5,9.8,80,0.00,,,0.00,pywws,2013-04-04 07:05:00,
2013-04-04 08:10:00,36.5,30.9,30.01,NW,315,4.5,9.8,80,0.00,,,0.00,pywws,2013-04-04 07:10:00,
2013-04-04 08:15:00,37.0,31.1,30.01,East,90,3.1,8.3,79,0.00,,,0.00,pywws,2013-04-04 07:15:00,
2013-04-04 08:20:00,37.2,31.3,30.01,East,90,3.1,5.4,79,0.00,,,0.00,pywws,2013-04-04 07:20:00,
2013-04-04 08:25:00,37.2,31.0,30.01,NE,45,3.8,9.2,78,0.00,,,0.00,pywws,2013-04-04 07:25:00,
2013-04-04 08:30:00,37.4,30.9,30.01,North,0,2.2,5.4,77,0.00,,,0.00,pywws,2013-04-04 07:30:00,
2013-04-04 08:36:00,37.4,30.5,30.01,East,90,6.9,13.6,76,0.00,,,0.00,pywws,2013-04-04 07:36:00,
2013-04-04 08:41:00,37.6,30.7,30.01,NE,45,2.2,6.0,76,0.00,,,0.00,pywws,2013-04-04 07:41:00,
2013-04-04 08:46:00,37.4,30.2,30.01,NE,45,4.5,7.6,75,0.00,,,0.00,pywws,2013-04-04 07:46:00,
2013-04-04 08:51:00,37.4,30.5,30.02,NE,45,3.8,6.0,76,0.00,,,0.00,pywws,2013-04-04 07:51:00,
2013-04-04 08:56:00,37.4,30.2,30.02,East,90,3.8,10.7,75,0.00,,,0.00,pywws,2013-04-04 07:56:00,
2013-04-04 09:01:00,37.4,30.2,30.01,NE,45,4.5,9.8,75,0.00,,,0.00,pywws,2013-04-04 08:01:00,
2013-04-04 09:06:00,37.6,30.4,30.02,NE,45,3.8,7.6,75,0.00,,,0.00,pywws,2013-04-04 08:06:00,
2013-04-04 09:12:00,37.4,29.5,30.02,North,0,4.5,9.2,73,0.00,,,0.00,pywws,2013-04-04 08:12:00,
2013-04-04 09:17:00,37.4,29.5,30.02,East,90,5.4,13.6,73,0.00,,,0.00,pywws,2013-04-04 08:17:00,
2013-04-04 09:22:00,37.2,29.0,30.02,NW,315,4.5,11.4,72,0.00,,,0.00,pywws,2013-04-04 08:22:00,
2013-04-04 09:27:00,37.0,29.2,30.02,East,90,3.1,10.7,73,0.00,,,0.00,pywws,2013-04-04 08:27:00,
2013-04-04 09:32:00,36.9,28.4,30.01,NE,45,6.9,13.6,71,0.00,,,0.00,pywws,2013-04-04 08:32:00,
2013-04-04 09:37:00,36.9,28.0,30.01,NE,45,3.8,6.9,70,0.00,,,0.00,pywws,2013-04-04 08:37:00,
2013-04-04 09:42:00,37.0,27.8,30.02,NW,315,2.2,5.4,69,0.00,,,0.00,pywws,2013-04-04 08:42:00,
2013-04-04 09:47:00,37.2,27.3,30.01,NE,45,3.8,7.6,67,0.00,,,0.00,pywws,2013-04-04 08:47:00,
2013-04-04 09:53:00,37.4,26.4,30.01,North,0,7.6,15.2,64,0.00,,,0.00,pywws,2013-04-04 08:53:00,
2013-04-04 09:58:00,37.6,26.5,30.01,North,0,4.5,9.8,64,0.00,,,0.00,pywws,2013-04-04 08:58:00,
2013-04-04 10:03:00,37.9,26.1,30.01,East,90,2.2,6.9,62,0.00,,,0.00,pywws,2013-04-04 09:03:00,
2013-04-04 10:09:00,37.6,25.8,30.01,NE,45,6.9,11.4,62,0.00,,,0.00,pywws,2013-04-04 09:09:00,
2013-04-04 10:14:00,37.2,25.8,30.02,NE,45,3.1,6.9,63,0.00,,,0.00,pywws,2013-04-04 09:14:00,
2013-04-04 10:19:00,37.0,26.0,30.02,North,0,6.0,11.4,64,0.00,,,0.00,pywws,2013-04-04 09:19:00,
2013-04-04 10:24:00,36.9,26.2,30.02,East,90,5.4,10.7,65,0.00,,,0.00,pywws,2013-04-04 09:24:00,
2013-04-04 10:30:00,36.5,26.6,30.02,North,0,6.0,16.8,67,0.00,,,0.00,pywws,2013-04-04 09:30:00,
2013-04-04 10:35:00,36.3,26.8,30.02,North,0,3.1,9.8,68,0.00,,,0.00,pywws,2013-04-04 09:35:00,
2013-04-04 10:40:00,36.3,27.1,30.02,North,0,6.9,13.6,69,0.00,,,0.00,pywws,2013-04-04 09:40:00,
2013-04-04 10:45:00,36.3,27.1,30.02,NE,45,3.8,9.8,69,0.00,,,0.00,pywws,2013-04-04 09:45:00,
2013-04-04 10:50:00,36.3,27.5,30.02,North,0,4.5,13.6,70,0.00,,,0.00,pywws,2013-04-04 09:50:00,
2013-04-04 10:55:00,36.3,27.5,30.02,ENE,68,3.8,14.5,70,0.00,,,0.00,pywws,2013-04-04 09:55:00,
2013-04-04 11:01:00,36.3,27.5,30.02,NE,45,3.1,6.9,70,0.00,,,0.00,pywws,2013-04-04 10:01:00,
2013-04-04 11:07:00,36.5,27.3,30.02,North,0,6.0,10.7,69,0.00,,,0.00,pywws,2013-04-04 10:07:00,
2013-04-04 11:12:00,36.7,27.1,30.02,SE,135,5.4,11.4,68,0.00,,,0.00,pywws,2013-04-04 10:12:00,
2013-04-04 11:17:00,36.9,26.9,30.02,North,0,3.1,8.3,67,0.00,,,0.00,pywws,2013-04-04 10:17:00,
2013-04-04 11:22:00,37.0,26.8,30.02,NE,45,6.0,11.4,66,0.00,,,0.00,pywws,2013-04-04 10:22:00,
2013-04-04 11:27:00,37.2,26.9,30.02,NNE,22,6.9,13.6,66,0.00,,,0.00,pywws,2013-04-04 10:27:00,
2013-04-04 11:32:00,37.4,27.8,30.02,East,90,3.1,7.6,68,0.00,,,0.00,pywws,2013-04-04 10:32:00,
2013-04-04 11:38:00,37.4,27.5,30.02,NNE,22,4.5,9.2,67,0.00,,,0.00,pywws,2013-04-04 10:38:00,
2013-04-04 11:43:00,37.6,27.3,30.02,NW,315,3.1,6.9,66,0.00,,,0.00,pywws,2013-04-04 10:43:00,
2013-04-04 11:48:00,37.6,27.6,30.02,NE,45,5.4,7.6,67,0.00,,,0.00,pywws,2013-04-04 10:48:00,
2013-04-04 11:53:00,37.4,27.8,30.02,NE,45,7.6,14.5,68,0.00,,,0.00,pywws,2013-04-04 10:53:00,
2013-04-04 11:58:00,36.9,28.4,30.02,NW,315,6.0,13.0,71,0.00,,,0.00,pywws,2013-04-04 10:58:00,
2013-04-04 12:03:00,36.7,29.2,30.02,North,0,4.5,8.3,74,0.00,,,0.00,pywws,2013-04-04 11:03:00,
2013-04-04 12:08:00,36.3,29.2,30.03,NE,45,3.8,9.2,75,0.00,,,0.00,pywws,2013-04-04 11:08:00,
2013-04-04 12:14:00,36.1,29.6,30.03,North,0,4.5,9.8,77,0.00,,,0.00,pywws,2013-04-04 11:14:00,
2013-04-04 12:19:00,36.0,30.1,30.02,East,90,3.8,9.2,79,0.00,,,0.00,pywws,2013-04-04 11:19:00,
2013-04-04 12:24:00,35.6,30.1,30.02,NW,315,2.2,4.5,80,0.00,,,0.00,pywws,2013-04-04 11:24:00,
2013-04-04 12:29:00,35.4,30.2,30.02,North,0,5.4,10.7,81,0.00,,,0.00,pywws,2013-04-04 11:29:00,
2013-04-04 12:34:00,35.4,30.2,30.02,NE,45,4.5,13.0,81,0.00,,,0.00,pywws,2013-04-04 11:34:00,
2013-04-04 12:40:00,35.2,30.6,30.02,NE,45,3.8,10.7,83,0.00,,,0.00,pywws,2013-04-04 11:40:00,
2013-04-04 12:45:00,35.4,30.8,30.02,North,0,6.9,13.6,83,0.00,,,0.00,pywws,2013-04-04 11:45:00,
2013-04-04 12:50:00,35.2,30.6,30.02,ENE,68,3.1,6.9,83,0.00,,,0.00,pywws,2013-04-04 11:50:00,
2013-04-04 12:55:00,35.4,30.8,30.01,SE,135,0.7,3.1,83,0.00,,,0.00,pywws,2013-04-04 11:55:00,
2013-04-04 13:01:00,35.4,30.8,30.02,North,0,3.1,9.8,83,0.00,,,0.00,pywws,2013-04-04 12:01:00,
2013-04-04 13:06:00,35.4,30.8,30.02,North,0,3.1,6.0,83,0.00,,,0.00,pywws,2013-04-04 12:06:00,
2013-04-04 13:11:00,35.2,30.9,30.02,NW,315,1.6,3.1,84,0.00,,,0.00,pywws,2013-04-04 12:11:00,
2013-04-04 13:16:00,35.2,31.2,30.02,NE,45,3.1,7.6,85,0.00,,,0.00,pywws,2013-04-04 12:16:00,
2013-04-04 13:22:00,35.4,31.1,30.02,NE,45,4.5,12.1,84,0.00,,,0.00,pywws,2013-04-04 12:22:00,
2013-04-04 13:27:00,35.6,31.3,30.02,East,90,3.1,6.0,84,0.00,,,0.00,pywws,2013-04-04 12:27:00,
2013-04-04 13:32:00,35.8,30.8,30.02,North,0,6.9,12.1,82,0.00,,,0.00,pywws,2013-04-04 12:32:00,
2013-04-04 13:37:00,35.8,31.1,30.02,NE,45,3.1,6.9,83,0.00,,,0.00,pywws,2013-04-04 12:37:00,
2013-04-04 13:42:00,35.8,31.1,30.02,ENE,68,5.4,9.8,83,0.00,,,0.00,pywws,2013-04-04 12:42:00,
2013-04-04 13:47:00,35.8,31.4,30.01,NE,45,1.6,6.9,84,0.00,,,0.00,pywws,2013-04-04 12:47:00,
2013-04-04 13:53:00,36.1,31.5,30.01,NE,45,4.5,7.6,83,0.00,,,0.00,pywws,2013-04-04 12:53:00,
2013-04-04 13:58:00,36.9,32.5,30.01,NW,315,2.2,5.4,84,0.00,,,0.00,pywws,2013-04-04 12:58:00,
2013-04-04 14:03:00,37.4,32.4,30.01,North,0,1.6,3.1,82,0.00,,,0.00,pywws,2013-04-04 13:03:00,
2013-04-04 14:08:00,38.3,33.0,30.01,East,90,3.1,6.9,81,0.00,,,0.00,pywws,2013-04-04 13:08:00,
2013-04-04 14:13:00,38.5,32.5,30.00,NE,45,4.5,8.3,79,0.00,,,0.00,pywws,2013-04-04 13:13:00,
2013-04-04 14:19:00,37.9,32.0,30.01,North,0,6.0,11.4,79,0.00,,,0.00,pywws,2013-04-04 13:19:00,
2013-04-04 14:24:00,37.6,32.3,30.00,NE,45,4.5,9.2,81,0.00,,,0.00,pywws,2013-04-04 13:24:00,
2013-04-04 14:29:00,37.8,32.5,30.00,NE,45,2.2,6.0,81,0.00,,,0.00,pywws,2013-04-04 13:29:00,
2013-04-04 14:34:00,37.8,32.2,29.99,NE,45,2.2,5.4,80,0.00,,,0.00,pywws,2013-04-04 13:34:00,
2013-04-04 14:39:00,37.6,32.0,30.00,NE,45,6.0,8.3,80,0.00,,,0.00,pywws,2013-04-04 13:39:00,
2013-04-04 14:44:00,37.8,32.2,29.99,NE,45,5.4,9.8,80,0.00,,,0.00,pywws,2013-04-04 13:44:00,
2013-04-04 14:50:00,37.9,32.6,29.99,North,0,2.2,4.5,81,0.00,,,0.00,pywws,2013-04-04 13:50:00,
2013-04-04 14:55:00,38.1,32.2,29.99,East,90,6.0,13.6,79,0.00,,,0.00,pywws,2013-04-04 13:55:00,
2013-04-04 15:00:00,37.8,32.2,29.99,East,90,3.8,6.9,80,0.00,,,0.00,pywws,2013-04-04 14:00:00,
2013-04-04 15:05:00,37.2,32.2,29.99,ENE,68,3.8,6.9,82,0.00,,,0.00,pywws,2013-04-04 14:05:00,
2013-04-04 15:10:00,36.1,32.4,29.99,NE,45,2.2,6.9,86,0.00,,,0.00,pywws,2013-04-04 14:10:00,
2013-04-04 15:15:00,35.2,32.6,29.99,NE,45,3.1,7.6,90,0.00,,,0.00,pywws,2013-04-04 14:15:00,
2013-04-04 15:20:00,34.9,32.8,29.99,NE,45,4.5,9.2,92,0.00,,,0.00,pywws,2013-04-04 14:20:00,
2013-04-04 15:26:00,35.1,33.2,29.99,NE,45,3.8,6.0,93,0.00,,,0.00,pywws,2013-04-04 14:26:00,
2013-04-04 15:31:00,35.4,33.1,29.99,NE,45,6.0,14.5,91,0.01,,,0.01,pywws,2013-04-04 14:31:00,
2013-04-04 15:36:00,35.8,32.9,29.99,North,0,8.3,13.6,89,0.01,,,0.01,pywws,2013-04-04 14:36:00,
2013-04-04 15:42:00,36.1,32.9,29.98,North,0,3.1,9.2,88,0.01,,,0.01,pywws,2013-04-04 14:42:00,
2013-04-04 15:47:00,36.3,32.8,29.98,North,0,4.5,10.7,87,0.01,,,0.01,pywws,2013-04-04 14:47:00,
2013-04-04 15:52:00,36.3,32.8,29.98,North,0,5.4,11.4,87,0.01,,,0.01,pywws,2013-04-04 14:52:00,
2013-04-04 15:57:00,36.5,32.7,29.98,West,270,3.1,7.6,86,0.01,,,0.01,pywws,2013-04-04 14:57:00,
2013-04-04 16:02:00,36.5,32.4,29.98,NE,45,4.5,12.1,85,0.01,,,0.01,pywws,2013-04-04 15:02:00,
2013-04-04 16:07:00,36.5,32.4,29.97,North,0,7.6,12.1,85,0.01,,,0.01,pywws,2013-04-04 15:07:00,
2013-04-04 16:13:00,36.7,32.3,29.98,NE,45,6.9,13.6,84,0.01,,,0.01,pywws,2013-04-04 15:13:00,
2013-04-04 16:18:00,36.7,32.3,29.98,NE,45,7.6,15.2,84,0.01,,,0.01,pywws,2013-04-04 15:18:00,
2013-04-04 16:23:00,36.7,32.3,29.98,North,0,0.7,3.8,84,0.01,,,0.01,pywws,2013-04-04 15:23:00,
2013-04-04 16:28:00,36.9,32.2,29.98,NNE,22,6.0,13.0,83,0.01,,,0.01,pywws,2013-04-04 15:28:00,
2013-04-04 16:33:00,36.9,32.2,29.98,North,0,7.6,13.0,83,0.00,,,0.01,pywws,2013-04-04 15:33:00,
2013-04-04 16:38:00,36.9,32.2,29.98,North,0,7.6,13.0,83,0.00,,,0.01,pywws,2013-04-04 15:38:00,
2013-04-04 16:43:00,36.9,32.2,29.98,North,0,2.2,4.5,83,0.00,,,0.01,pywws,2013-04-04 15:43:00,
2013-04-04 16:48:00,36.9,32.2,29.98,NNW,338,3.8,7.6,83,0.00,,,0.01,pywws,2013-04-04 15:48:00,
2013-04-04 16:53:00,37.0,32.1,29.98,East,90,2.2,4.5,82,0.00,,,0.01,pywws,2013-04-04 15:53:00,
2013-04-04 16:59:00,37.0,32.1,29.98,NE,45,3.8,7.6,82,0.00,,,0.01,pywws,2013-04-04 15:59:00,
2013-04-04 17:04:00,37.0,32.1,29.98,SW,225,7.6,14.5,82,0.00,,,0.01,pywws,2013-04-04 16:04:00,
2013-04-04 17:09:00,36.9,31.6,29.98,North,0,7.6,15.9,81,0.00,,,0.01,pywws,2013-04-04 16:09:00,
2013-04-04 17:14:00,36.9,31.6,29.98,North,0,7.6,15.9,81,0.00,,,0.01,pywws,2013-04-04 16:14:00,
2013-04-04 17:19:00,37.0,30.5,29.98,North,0,6.0,10.7,77,0.00,,,0.01,pywws,2013-04-04 16:19:00,
2013-04-04 17:24:00,37.0,30.5,29.98,North,0,5.4,15.9,77,0.00,,,0.01,pywws,2013-04-04 16:24:00,
2013-04-04 17:29:00,37.0,30.2,29.98,NE,45,7.6,13.0,76,0.00,,,0.01,pywws,2013-04-04 16:29:00,
2013-04-04 17:34:00,37.0,29.9,29.98,South,180,4.5,8.3,75,0.00,,,0.01,pywws,2013-04-04 16:34:00,
2013-04-04 17:39:00,37.0,30.2,29.99,North,0,4.5,8.3,76,0.00,,,0.01,pywws,2013-04-04 16:39:00,
2013-04-04 17:45:00,37.0,29.5,29.99,North,0,7.6,17.5,74,0.00,,,0.01,pywws,2013-04-04 16:45:00,
2013-04-04 17:50:00,36.9,29.7,29.99,NW,315,5.4,9.2,75,0.00,,,0.01,pywws,2013-04-04 16:50:00,
2013-04-04 17:55:00,36.9,29.7,29.99,WNW,292,2.2,5.4,75,0.00,,,0.01,pywws,2013-04-04 16:55:00,
2013-04-04 18:00:00,37.0,29.5,29.99,NE,45,3.1,9.2,74,0.00,,,0.01,pywws,2013-04-04 17:00:00,
2013-04-04 18:05:00,37.0,29.5,29.99,NE,45,3.1,9.2,74,0.00,,,0.01,pywws,2013-04-04 17:05:00,
2013-04-04 18:10:00,37.0,29.2,29.99,East,90,6.9,17.5,73,0.00,,,0.01,pywws,2013-04-04 17:10:00,
2013-04-04 18:15:00,36.9,29.4,30.00,NE,45,3.1,7.6,74,0.00,,,0.01,pywws,2013-04-04 17:15:00,
2013-04-04 18:20:00,37.0,29.2,30.00,NW,315,3.1,6.9,73,0.00,,,0.01,pywws,2013-04-04 17:20:00,
2013-04-04 18:25:00,37.0,29.2,30.00,NE,45,6.9,13.6,73,0.00,,,0.01,pywws,2013-04-04 17:25:00,
2013-04-04 18:30:00,37.0,28.5,29.99,NE,45,6.9,15.2,71,0.00,,,0.01,pywws,2013-04-04 17:30:00,
2013-04-04 18:36:00,37.0,28.9,29.99,North,0,4.5,8.3,72,0.00,,,0.01,pywws,2013-04-04 17:36:00,
2013-04-04 18:41:00,37.2,28.0,29.99,SE,135,5.4,11.4,69,0.00,,,0.01,pywws,2013-04-04 17:41:00,
2013-04-04 18:46:00,37.4,28.2,29.99,SW,225,6.0,13.0,69,0.00,,,0.01,pywws,2013-04-04 17:46:00,
2013-04-04 18:51:00,37.6,28.0,30.00,NE,45,8.3,15.2,68,0.00,,,0.01,pywws,2013-04-04 17:51:00,
2013-04-04 18:56:00,37.6,28.0,30.00,NE,45,6.0,10.7,68,0.00,,,0.01,pywws,2013-04-04 17:56:00,
2013-04-04 19:01:00,37.6,28.0,30.00,SE,135,5.4,15.9,68,0.00,,,0.01,pywws,2013-04-04 18:01:00,
2013-04-04 19:06:00,37.6,28.0,30.00,NNE,22,5.4,10.7,68,0.00,,,0.01,pywws,2013-04-04 18:06:00,
2013-04-04 19:11:00,37.6,28.0,30.00,NNW,338,1.6,5.4,68,0.00,,,0.01,pywws,2013-04-04 18:11:00,
2013-04-04 19:17:00,37.6,27.6,30.00,NE,45,6.0,15.2,67,0.00,,,0.01,pywws,2013-04-04 18:17:00,
2013-04-04 19:22:00,37.6,27.6,30.00,NNW,338,8.3,15.9,67,0.00,,,0.01,pywws,2013-04-04 18:22:00,
2013-04-04 19:27:00,37.6,27.6,30.00,ESE,112,2.2,5.4,67,0.00,,,0.01,pywws,2013-04-04 18:27:00,
2013-04-04 19:32:00,37.4,27.8,30.01,NE,45,5.4,9.8,68,0.00,,,0.01,pywws,2013-04-04 18:32:00,
2013-04-04 19:38:00,37.4,27.5,30.01,NE,45,3.1,7.6,67,0.00,,,0.01,pywws,2013-04-04 18:38:00,
2013-04-04 19:43:00,37.4,27.5,30.01,NE,45,3.1,6.0,67,0.00,,,0.01,pywws,2013-04-04 18:43:00,
2013-04-04 19:48:00,37.4,27.5,30.01,NE,45,1.6,4.5,67,0.00,,,0.01,pywws,2013-04-04 18:48:00,
2013-04-04 19:54:00,37.2,27.3,30.01,NW,315,3.8,9.2,67,0.00,,,0.01,pywws,2013-04-04 18:54:00,
2013-04-04 19:59:00,37.2,26.2,30.01,NNE,22,4.5,6.9,64,0.00,,,0.01,pywws,2013-04-04 18:59:00,
2013-04-04 20:04:00,37.2,26.2,30.00,East,90,4.5,12.1,64,0.00,,,0.01,pywws,2013-04-04 19:04:00,
2013-04-04 20:09:00,37.2,25.4,30.01,NE,45,3.1,8.3,62,0.00,,,0.01,pywws,2013-04-04 19:09:00,
2013-04-04 20:14:00,37.2,25.0,30.01,ENE,68,4.5,9.2,61,0.00,,,0.01,pywws,2013-04-04 19:14:00,
2013-04-04 20:19:00,37.0,24.9,30.01,NE,45,5.4,8.3,61,0.00,,,0.01,pywws,2013-04-04 19:19:00,
2013-04-04 20:25:00,37.0,25.2,30.01,East,90,2.2,6.0,62,0.00,,,0.01,pywws,2013-04-04 19:25:00,
2013-04-04 20:30:00,36.9,24.3,30.01,North,0,4.5,15.2,60,0.00,,,0.01,pywws,2013-04-04 19:30:00,
2013-04-04 20:35:00,36.9,24.3,30.01,NE,45,1.6,3.8,60,0.00,,,0.01,pywws,2013-04-04 19:35:00,
2013-04-04 20:40:00,36.9,23.9,30.01,NNE,22,3.1,9.8,59,0.00,,,0.01,pywws,2013-04-04 19:40:00,
2013-04-04 20:45:00,36.9,23.9,30.01,NW,315,1.6,5.4,59,0.00,,,0.01,pywws,2013-04-04 19:45:00,
2013-04-04 20:50:00,36.9,23.9,30.01,NW,315,2.2,7.6,59,0.00,,,0.01,pywws,2013-04-04 19:50:00,
2013-04-04 20:55:00,36.7,23.7,30.01,NE,45,4.5,8.3,59,0.00,,,0.01,pywws,2013-04-04 19:55:00,
2013-04-04 21:00:00,36.7,24.1,30.01,NNE,22,2.2,7.6,60,0.00,,,0.01,pywws,2013-04-04 20:00:00,
2013-04-04 21:06:00,36.7,24.1,30.01,NNE,22,2.2,7.6,60,0.00,,,0.01,pywws,2013-04-04 20:06:00,
2013-04-04 21:11:00,36.7,23.7,30.01,East,90,3.1,6.9,59,0.00,,,0.01,pywws,2013-04-04 20:11:00,
2013-04-04 21:16:00,36.9,23.9,30.01,NE,45,5.4,12.1,59,0.00,,,0.01,pywws,2013-04-04 20:16:00,
2013-04-04 21:22:00,36.7,23.7,30.01,East,90,2.2,5.4,59,0.00,,,0.01,pywws,2013-04-04 20:22:00,
2013-04-04 21:27:00,36.7,23.3,30.01,East,90,6.9,12.1,58,0.00,,,0.01,pywws,2013-04-04 20:27:00,
2013-04-04 21:32:00,36.7,23.7,30.01,SE,135,6.0,8.3,59,0.00,,,0.01,pywws,2013-04-04 20:32:00,
2013-04-04 21:37:00,36.7,23.7,30.01,NNE,22,4.5,9.8,59,0.00,,,0.01,pywws,2013-04-04 20:37:00,
2013-04-04 21:43:00,36.5,24.0,30.01,North,0,1.6,4.5,60,0.00,,,0.01,pywws,2013-04-04 20:43:00,
2013-04-04 21:48:00,36.3,23.8,30.01,NE,45,6.0,11.4,60,0.00,,,0.01,pywws,2013-04-04 20:48:00,
2013-04-04 21:53:00,36.1,24.0,30.01,North,0,2.2,6.0,61,0.00,,,0.01,pywws,2013-04-04 20:53:00,
2013-04-04 21:59:00,36.1,24.0,30.02,NE,45,5.4,9.2,61,0.00,,,0.01,pywws,2013-04-04 20:59:00,
2013-04-04 22:04:00,36.1,24.0,30.02,NE,45,3.1,9.2,61,0.00,,,0.01,pywws,2013-04-04 21:04:00,
2013-04-04 22:10:00,36.0,24.6,30.02,North,0,3.8,7.6,63,0.00,,,0.01,pywws,2013-04-04 21:10:00,
2013-04-04 22:15:00,35.8,24.8,30.02,North,0,2.2,6.0,64,0.00,,,0.01,pywws,2013-04-04 21:15:00,
2013-04-04 22:20:00,36.0,25.0,30.02,NE,45,4.5,10.7,64,0.00,,,0.01,pywws,2013-04-04 21:20:00,
2013-04-04 22:25:00,36.1,25.2,30.02,North,0,3.8,7.6,64,0.00,,,0.01,pywws,2013-04-04 21:25:00,
2013-04-04 22:30:00,36.0,25.4,30.02,NNE,22,3.8,8.3,65,0.00,,,0.01,pywws,2013-04-04 21:30:00,
2013-04-04 22:35:00,36.0,25.4,30.02,North,0,3.8,6.9,65,0.00,,,0.01,pywws,2013-04-04 21:35:00,
2013-04-04 22:41:00,36.0,25.7,30.02,NE,45,3.8,9.2,66,0.00,,,0.01,pywws,2013-04-04 21:41:00,
2013-04-04 22:46:00,35.8,25.6,30.03,North,0,3.8,10.7,66,0.00,,,0.01,pywws,2013-04-04 21:46:00,
2013-04-04 22:51:00,35.8,25.9,30.02,NE,45,4.5,11.4,67,0.00,,,0.01,pywws,2013-04-04 21:51:00,
2013-04-04 22:56:00,35.8,25.9,30.03,NE,45,5.4,13.0,67,0.00,,,0.01,pywws,2013-04-04 21:56:00,
2013-04-04 23:02:00,35.8,25.9,30.02,East,90,3.8,6.9,67,0.00,,,0.01,pywws,2013-04-04 22:02:00,
2013-04-04 23:07:00,35.8,25.9,30.02,East,90,3.8,6.9,67,0.00,,,0.01,pywws,2013-04-04 22:07:00,
2013-04-04 23:12:00,35.6,26.1,30.02,NE,45,2.2,5.4,68,0.00,,,0.01,pywws,2013-04-04 22:12:00,
2013-04-04 23:17:00,35.6,26.4,30.02,NE,45,3.8,6.9,69,0.00,,,0.01,pywws,2013-04-04 22:17:00,
2013-04-04 23:22:00,35.6,26.4,30.02,NE,45,4.5,9.8,69,0.00,,,0.01,pywws,2013-04-04 22:22:00,
2013-04-04 23:27:00,35.6,26.4,30.02,North,0,5.4,9.8,69,0.00,,,0.01,pywws,2013-04-04 22:27:00,
2013-04-04 23:32:00,35.8,27.0,30.02,North,0,1.6,3.8,70,0.00,,,0.01,pywws,2013-04-04 22:32:00,
2013-04-04 23:38:00,35.6,26.8,30.01,East,90,3.8,7.6,70,0.00,,,0.01,pywws,2013-04-04 22:38:00,
2013-04-04 23:43:00,35.6,26.8,30.01,North,0,3.8,11.4,70,0.00,,,0.01,pywws,2013-04-04 22:43:00,
2013-04-04 23:48:00,35.6,26.8,30.01,WNW,292,2.2,3.8,70,0.00,,,0.01,pywws,2013-04-04 22:48:00,
2013-04-04 23:53:00,35.4,27.0,30.01,NE,45,5.4,9.2,71,0.00,,,0.01,pywws,2013-04-04 22:53:00,
2013-04-04 23:58:00,35.4,27.0,30.01,NE,45,3.1,7.6,71,0.00,,,0.01,pywws,2013-04-04 22:58:00,